"Pseudo-MPEC" for A11FgaQ

Created 2026 Aug 8 2:35:02 UT using Find_Orb

Click here for an explanation of pseudo-MPECs

 
 Astrometry: 
     A11FgaQ*0C2026 08 01.89909918 54 29.786-44 17 48.26   ~828o 15.56oVNEOCPM22
     A11FgaQ 0C2026 08 01.90225518 53 56.218-44 20 24.00   ~828o 15.58oVNEOCPM22
     A11FgaQ 0C2026 08 01.90767318 52 58.092-44 24 51.80   ~828o 15.71oVNEOCPM22
     A11FgaQ 0C2026 08 01.91768218 51 09.050-44 33 06.16   ~828o 16.10oVNEOCPM22
     A11FgaQ 0C2026 08 01.91813218 51 04.063-44 33 28.58   ~828o 16.03oVNEOCPM22

Station data:
(M22) ATLAS South Africa, Sutherland  (S32.380156 E20.810590)  South Africa.
   Observers L. Denneau, R. Siverd, J. Tonry, H. Weiland. Measurers L.
   Denneau, N. Erasmus, A. Fitzsimmons, J. Robinson, R. Siverd, J. Tonry, H.
   Weiland. 0.5-m f/2.0 Schmidt + CCD.

Orbital elements:  A11FgaQ
   Perihelion 2026 Sep 14.966992 +/- 15 TT = 23:12:28.1 (JD 2461298.466992)
Epoch 2026 Aug  2.0 TT = JDT 2461254.5   Earth MOID: 0.0034   Ju: 0.7294
M 354.051947503 +/- 34              Ve: 0.0068   Ma: 0.0217      AutoNEOCP
n   0.135284497 +/- 0.275           Peri.   92.566611 +/- 60
a   3.758120431 +/- 5.09            Node   311.068865 +/- 70
e   0.86391004 +/- 0.216            Incl.    7.498723 +/- 2.2
P   7.28544                H 23.92  G  0.15   U 11.9  SR
q 0.511442438 +/- 0.169    Q 7.004798423 +/- 15.2         (J2000 ecliptic)
From 5 observations 2026 Aug. 1 (27.4 min); mean residual 0".36
Residuals in arcseconds: 
260801 M22  .57+  .18+    260801 M22  .81-  .38-    260801 M22  .09+  .01+    
260801 M22  .17-  .02+    260801 M22  .32+  .16+    

Ephemerides (geocentric):
Date (UTC) HH   RA             Dec           delta  r     elong  mag " sig PA
---- --------  ------------   ------------  ------ ------ -----  --- --------
2026 08 08 03  09 22 53.542   +21 41 09.88  .08288 .93165   6.1 40?? 926'  41
2026 08 08 04  09 22 46.313   +21 42 49.71  .08352 .93102   6.1 40?? 924'  41
2026 08 08 05  09 22 39.189   +21 44 27.98  .08415 .93039   6.1 40?? 923'  41
2026 08 08 06  09 22 32.168   +21 46 04.73  .08478 .92975   6.1 40?? 921'  41
2026 08 08 07  09 22 25.248   +21 47 39.99  .08542 .92912   6.2 40?? 920'  41
2026 08 08 08  09 22 18.427   +21 49 13.79  .08605 .92849   6.2 40?? 918'  41
2026 08 08 09  09 22 11.702   +21 50 46.17  .08668 .92785   6.2 40?? 917'  41
2026 08 08 10  09 22 05.072   +21 52 17.15  .08731 .92722   6.2 40?? 916'  41
2026 08 08 11  09 21 58.534   +21 53 46.78  .08795 .92659   6.2 40?? 914'  41
2026 08 08 12  09 21 52.086   +21 55 15.06  .08858 .92595   6.2 40?? 913'  41
2026 08 08 13  09 21 45.728   +21 56 42.04  .08922 .92532   6.2 40?? 912'  41
2026 08 08 14  09 21 39.456   +21 58 07.73  .08985 .92468   6.2 40?? 910'  41
2026 08 08 15  09 21 33.270   +21 59 32.17  .09048 .92405   6.2 40?? 909'  41
2026 08 08 16  09 21 27.167   +22 00 55.39  .09112 .92342   6.2 40?? 908'  41
2026 08 08 17  09 21 21.146   +22 02 17.40  .09175 .92278   6.3 40?? 906'  41
2026 08 08 18  09 21 15.206   +22 03 38.23  .09239 .92215   6.3 40?? 905'  41
2026 08 08 19  09 21 09.344   +22 04 57.90  .09302 .92152   6.3 39?? 904'  41
2026 08 08 20  09 21 03.559   +22 06 16.45  .09366 .92088   6.3 39?? 903'  41
2026 08 08 21  09 20 57.850   +22 07 33.88  .09429 .92025   6.3 39?? 901'  41
2026 08 08 22  09 20 52.215   +22 08 50.22  .09493 .91962   6.3 39?? 900'  41
2026 08 08 23  09 20 46.653   +22 10 05.50  .09556 .91898   6.3 39?? 899'  41
2026 08 09 00  09 20 41.163   +22 11 19.73  .09620 .91835   6.4 39?? 898'  41
2026 08 09 01  09 20 35.742   +22 12 32.94  .09683 .91772   6.4 39?? 897'  41
2026 08 09 02  09 20 30.390   +22 13 45.13  .09747 .91709   6.4 39?? 895'  41
2026 08 09 03  09 20 25.106   +22 14 56.34  .09810 .91645   6.4 39?? 894'  41
2026 08 09 04  09 20 19.888   +22 16 06.58  .09874 .91582   6.4 39?? 893'  41
2026 08 09 05  09 20 14.735   +22 17 15.87  .09937 .91519   6.5 39?? 892'  41
2026 08 09 06  09 20 09.646   +22 18 24.23  .10001 .91455   6.5 39?? 891'  41
2026 08 09 07  09 20 04.620   +22 19 31.67  .10065 .91392   6.5 39?? 890'  41
2026 08 09 08  09 19 59.655   +22 20 38.21  .10128 .91329   6.5 39?? 889'  41
2026 08 09 09  09 19 54.751   +22 21 43.86  .10192 .91265   6.5 39?? 888'  41
2026 08 09 10  09 19 49.906   +22 22 48.65  .10255 .91202   6.6 39?? 887'  41
2026 08 09 11  09 19 45.120   +22 23 52.59  .10319 .91139   6.6 39?? 885'  41
2026 08 09 12  09 19 40.391   +22 24 55.69  .10383 .91075   6.6 39?? 884'  41
2026 08 09 13  09 19 35.718   +22 25 57.97  .10446 .91012   6.6 39?? 883'  41
2026 08 09 14  09 19 31.101   +22 26 59.44  .10510 .90949   6.6 39?? 882'  41
2026 08 09 15  09 19 26.539   +22 28 00.12  .10574 .90886   6.7 39?? 881'  41
2026 08 09 16  09 19 22.029   +22 29 00.02  .10638 .90822   6.7 39?? 880'  41
2026 08 09 17  09 19 17.573   +22 29 59.16  .10701 .90759   6.7 39?? 879'  41
2026 08 09 18  09 19 13.168   +22 30 57.54  .10765 .90696   6.7 39?? 878'  41
2026 08 09 19  09 19 08.814   +22 31 55.18  .10829 .90633   6.8 39?? 877'  41
2026 08 09 20  09 19 04.510   +22 32 52.09  .10893 .90569   6.8 39?? 877'  41
2026 08 09 21  09 19 00.255   +22 33 48.29  .10956 .90506   6.8 39?? 876'  41
2026 08 09 22  09 18 56.049   +22 34 43.78  .11020 .90443   6.8 38?? 875'  41
2026 08 09 23  09 18 51.890   +22 35 38.58  .11084 .90380   6.9 38?? 874'  41
2026 08 10 00  09 18 47.778   +22 36 32.71  .11148 .90316   6.9 38?? 873'  41
2026 08 10 01  09 18 43.712   +22 37 26.16  .11212 .90253   6.9 38?? 872'  41
2026 08 10 02  09 18 39.692   +22 38 18.95  .11276 .90190   6.9 38?? 871'  41